TimeCST,TemperatureF,Dew PointF,Humidity,Sea Level PressureIn,VisibilityMPH,Wind Direction,Wind SpeedMPH,Gust SpeedMPH,PrecipitationIn,Events,Conditions,WindDirDegrees,DateUTC
12:53 AM,28.9,27.0,92,30.14,5.0,South,3.5,-,N/A,,Mostly Cloudy,190,2012-12-28 06:53:00
1:53 AM,30.0,28.0,92,30.15,5.0,SSE,4.6,-,N/A,,Overcast,160,2012-12-28 07:53:00
2:53 AM,30.0,27.0,88,30.13,6.0,South,5.8,-,N/A,,Overcast,170,2012-12-28 08:53:00
3:53 AM,30.0,26.1,85,30.11,7.0,SE,3.5,-,N/A,,Overcast,130,2012-12-28 09:53:00
5:53 AM,30.0,26.1,85,30.11,10.0,ESE,3.5,-,N/A,,Overcast,120,2012-12-28 11:53:00
6:53 AM,30.0,26.1,85,30.12,10.0,SSE,3.5,-,N/A,,Overcast,160,2012-12-28 12:53:00
7:21 AM,30.2,26.6,86,30.10,1.8,SSE,4.6,-,0.00,Snow,Light Snow,160,2012-12-28 13:21:00
7:33 AM,28.4,26.6,93,30.10,1.0,SSE,4.6,-,0.01,Snow,Light Snow,150,2012-12-28 13:33:00
7:53 AM,28.9,27.0,92,30.13,0.5,SSE,3.5,-,0.02,Fog-Snow,Snow,150,2012-12-28 13:53:00
8:48 AM,28.4,26.6,93,30.10,0.5,ESE,6.9,-,0.01,Fog-Snow,Snow,120,2012-12-28 14:48:00
8:53 AM,28.9,27.0,92,30.13,0.5,SE,6.9,-,0.01,Fog-Snow,Snow,130,2012-12-28 14:53:00
9:04 AM,28.4,26.6,93,30.11,1.0,SE,5.8,-,0.00,Snow,Light Snow,140,2012-12-28 15:04:00
9:20 AM,28.4,26.6,93,30.10,0.5,SE,5.8,-,0.00,Fog-Snow,Snow,130,2012-12-28 15:20:00
9:51 AM,30.2,28.4,93,30.10,1.0,SE,5.8,-,0.00,Snow,Light Snow,140,2012-12-28 15:51:00
9:53 AM,30.0,28.0,92,30.13,1.0,SE,8.1,-,0.01,Snow,Light Snow,140,2012-12-28 15:53:00
10:30 AM,30.2,28.4,93,30.09,2.0,SE,5.8,-,0.00,Snow,Light Snow,140,2012-12-28 16:30:00
10:50 AM,30.2,28.4,93,30.07,3.0,SSE,8.1,-,0.00,,Overcast,160,2012-12-28 16:50:00
10:53 AM,30.0,27.0,88,30.10,4.0,SSE,8.1,-,0.00,,Overcast,150,2012-12-28 16:53:00
11:53 AM,30.0,27.0,88,30.05,6.0,SE,6.9,-,N/A,,Overcast,140,2012-12-28 17:53:00
12:00 PM,30.2,26.6,86,30.02,6.0,SE,8.1,-,N/A,,Overcast,140,2012-12-28 18:00:00
12:53 PM,30.9,27.0,85,30.01,7.0,SE,8.1,-,N/A,,Overcast,130,2012-12-28 18:53:00
1:53 PM,30.9,26.1,82,30.00,9.0,SE,8.1,-,N/A,,Overcast,130,2012-12-28 19:53:00
2:09 PM,30.2,26.6,86,29.96,9.0,SSE,6.9,-,N/A,,Overcast,150,2012-12-28 20:09:00
2:20 PM,30.2,26.6,86,29.96,9.0,SE,9.2,-,N/A,,Overcast,140,2012-12-28 20:20:00
2:53 PM,30.9,26.1,82,29.99,9.0,SSE,5.8,-,N/A,,Overcast,150,2012-12-28 20:53:00
3:53 PM,30.9,26.1,82,30.00,8.0,South,4.6,-,N/A,,Overcast,170,2012-12-28 21:53:00
4:10 PM,30.2,26.6,86,29.96,8.0,SSE,4.6,-,N/A,,Overcast,160,2012-12-28 22:10:00
4:53 PM,30.0,26.1,85,29.98,9.0,SE,5.8,-,N/A,,Overcast,140,2012-12-28 22:53:00
5:53 PM,30.0,26.1,85,29.99,10.0,SSE,4.6,-,N/A,,Overcast,150,2012-12-28 23:53:00
7:53 PM,30.0,26.1,85,29.96,7.0,East,3.5,-,N/A,,Overcast,80,2012-12-29 01:53:00
8:53 PM,28.9,26.1,89,29.94,6.0,ENE,3.5,-,N/A,,Overcast,60,2012-12-29 02:53:00
9:18 PM,28.4,26.6,93,29.90,7.0,ENE,3.5,-,N/A,,Overcast,60,2012-12-29 03:18:00
9:53 PM,28.9,26.1,89,29.93,6.0,ENE,3.5,-,N/A,,Overcast,70,2012-12-29 03:53:00
10:09 PM,28.4,26.6,93,29.89,6.0,ENE,4.6,-,N/A,,Overcast,70,2012-12-29 04:09:00
10:53 PM,28.9,26.1,89,29.91,6.0,ENE,3.5,-,N/A,,Overcast,70,2012-12-29 04:53:00
11:53 PM,28.9,26.1,89,29.88,5.0,East,3.5,-,N/A,,Overcast,80,2012-12-29 05:53:00